Time,TemperatureF,DewpointF,PressureIn,WindDirection,WindDirectionDegrees,WindSpeedMPH,WindSpeedGustMPH,Humidity,HourlyPrecipIn,Conditions,Clouds,dailyrainin,SoftwareType,DateUTC
2013-02-03 00:06:00,46.8,42.0,30.17,SE,139,2.0,2.0,83,0.00,,,0.00,weatherlink.com 1.10,2013-02-03 08:06:00,
2013-02-03 00:21:00,46.1,41.0,30.16,SSE,154,2.0,4.0,83,0.01,,,0.01,weatherlink.com 1.10,2013-02-03 08:21:00,
2013-02-03 00:36:00,45.7,42.0,30.15,ESE,123,0.0,3.0,86,0.01,,,0.00,weatherlink.com 1.10,2013-02-03 08:36:00,
2013-02-03 00:51:00,45.4,41.0,30.16,SSE,163,1.0,4.0,84,0.01,,,0.00,weatherlink.com 1.10,2013-02-03 08:51:00,
2013-02-03 01:06:00,45.0,42.0,30.15,SE,138,0.0,0.0,88,0.01,,,0.00,weatherlink.com 1.10,2013-02-03 09:06:00,
2013-02-03 01:21:00,44.7,42.0,30.15,SE,136,0.0,0.0,90,0.00,,,0.00,weatherlink.com 1.10,2013-02-03 09:21:00,
2013-02-03 01:36:00,44.5,42.0,30.15,SSE,148,0.0,0.0,90,0.01,,,0.01,weatherlink.com 1.10,2013-02-03 09:36:00,
2013-02-03 01:51:00,44.3,42.0,30.14,SSE,153,0.0,0.0,90,0.01,,,0.01,weatherlink.com 1.10,2013-02-03 09:51:00,
2013-02-03 02:06:00,44.2,42.0,30.14,SE,138,0.0,0.0,91,0.03,,,0.03,weatherlink.com 1.10,2013-02-03 10:06:00,
2013-02-03 02:21:00,44.0,42.0,30.13,SE,143,0.0,0.0,92,0.03,,,0.03,weatherlink.com 1.10,2013-02-03 10:21:00,
2013-02-03 02:36:00,43.8,42.0,30.12,SE,131,0.0,1.0,93,0.03,,,0.04,weatherlink.com 1.10,2013-02-03 10:36:00,
2013-02-03 02:51:00,43.6,42.0,30.11,SE,144,0.0,2.0,94,0.04,,,0.05,weatherlink.com 1.10,2013-02-03 10:51:00,
2013-02-03 03:06:00,43.6,42.0,30.11,SE,127,0.0,1.0,94,0.02,,,0.05,weatherlink.com 1.10,2013-02-03 11:06:00,
2013-02-03 03:21:00,43.7,42.0,30.11,SE,143,0.0,1.0,94,0.03,,,0.06,weatherlink.com 1.10,2013-02-03 11:21:00,
2013-02-03 03:36:00,43.7,42.0,30.12,SE,144,0.0,0.0,95,0.02,,,0.06,weatherlink.com 1.10,2013-02-03 11:36:00,
2013-02-03 03:51:00,43.8,43.0,30.12,SE,143,0.0,0.0,95,0.01,,,0.06,weatherlink.com 1.10,2013-02-03 11:51:00,
2013-02-03 04:06:00,43.7,42.0,30.13,SE,143,0.0,0.0,95,0.01,,,0.06,weatherlink.com 1.10,2013-02-03 12:06:00,
2013-02-03 04:21:00,43.7,42.0,30.12,ESE,120,0.0,0.0,95,0.00,,,0.06,weatherlink.com 1.10,2013-02-03 12:21:00,
2013-02-03 04:36:00,43.8,43.0,30.12,South,181,0.0,0.0,95,0.00,,,0.06,weatherlink.com 1.10,2013-02-03 12:36:00,
2013-02-03 04:51:00,44.2,43.0,30.11,South,181,0.0,0.0,96,0.00,,,0.06,weatherlink.com 1.10,2013-02-03 12:51:00,
2013-02-03 05:06:00,44.5,44.0,30.10,South,173,0.0,1.0,96,0.00,,,0.06,weatherlink.com 1.10,2013-02-03 13:06:00,
2013-02-03 05:21:00,44.7,44.0,30.10,SE,131,0.0,1.0,96,0.00,,,0.06,weatherlink.com 1.10,2013-02-03 13:21:00,
2013-02-03 05:37:00,44.7,43.0,30.10,SSE,158,0.0,2.0,95,0.00,,,0.06,weatherlink.com 1.10,2013-02-03 13:37:00,
2013-02-03 05:52:00,44.6,43.0,30.09,SSE,150,0.0,1.0,95,0.00,,,0.06,weatherlink.com 1.10,2013-02-03 13:52:00,
2013-02-03 06:07:00,44.5,44.0,30.10,SE,135,0.0,1.0,96,0.00,,,0.06,weatherlink.com 1.10,2013-02-03 14:07:00,
2013-02-03 06:22:00,44.5,44.0,30.09,SSE,154,1.0,1.0,96,0.00,,,0.06,weatherlink.com 1.10,2013-02-03 14:22:00,
2013-02-03 06:37:00,44.5,43.0,30.08,SW,223,2.0,3.0,95,0.00,,,0.06,weatherlink.com 1.10,2013-02-03 14:37:00,
2013-02-03 06:52:00,44.6,43.0,30.09,WNW,292,3.0,4.0,95,0.00,,,0.06,weatherlink.com 1.10,2013-02-03 14:52:00,
2013-02-03 07:07:00,45.2,43.0,30.10,NW,316,0.0,0.0,93,0.00,,,0.06,weatherlink.com 1.10,2013-02-03 15:07:00,
2013-02-03 07:22:00,45.1,44.0,30.09,SSW,204,0.0,0.0,94,0.00,,,0.06,weatherlink.com 1.10,2013-02-03 15:22:00,
2013-02-03 07:37:00,45.2,44.0,30.09,SSE,148,0.0,0.0,95,0.00,,,0.06,weatherlink.com 1.10,2013-02-03 15:37:00,
2013-02-03 07:52:00,44.5,43.0,30.09,SSE,148,0.0,0.0,94,0.00,,,0.06,weatherlink.com 1.10,2013-02-03 15:52:00,
2013-02-03 08:07:00,43.7,42.0,30.10,SSE,148,0.0,0.0,95,0.00,,,0.06,weatherlink.com 1.10,2013-02-03 16:07:00,
2013-02-03 08:22:00,43.1,42.0,30.09,SSE,148,0.0,0.0,95,0.00,,,0.06,weatherlink.com 1.10,2013-02-03 16:22:00,
2013-02-03 08:37:00,43.0,42.0,30.09,SE,145,0.0,0.0,96,0.00,,,0.06,weatherlink.com 1.10,2013-02-03 16:37:00,
2013-02-03 08:52:00,42.9,42.0,30.09,SE,145,0.0,0.0,96,0.00,,,0.06,weatherlink.com 1.10,2013-02-03 16:52:00,
2013-02-03 09:07:00,42.9,42.0,30.09,SE,145,0.0,0.0,96,0.00,,,0.06,weatherlink.com 1.10,2013-02-03 17:07:00,
2013-02-03 09:22:00,43.0,42.0,30.09,SSE,154,0.0,0.0,96,0.00,,,0.06,weatherlink.com 1.10,2013-02-03 17:22:00,
2013-02-03 09:37:00,43.6,43.0,30.10,SSE,153,0.0,0.0,96,0.00,,,0.06,weatherlink.com 1.10,2013-02-03 17:37:00,
2013-02-03 09:52:00,44.3,43.0,30.10,SSE,153,0.0,0.0,96,0.00,,,0.06,weatherlink.com 1.10,2013-02-03 17:52:00,
2013-02-03 10:07:00,45.0,44.0,30.10,SSE,162,0.0,0.0,96,0.00,,,0.06,weatherlink.com 1.10,2013-02-03 18:07:00,
2013-02-03 10:22:00,46.2,45.0,30.10,SSE,156,0.0,0.0,96,0.00,,,0.06,weatherlink.com 1.10,2013-02-03 18:22:00,
2013-02-03 10:37:00,48.7,47.0,30.10,SSE,155,0.0,0.0,95,0.00,,,0.06,weatherlink.com 1.10,2013-02-03 18:37:00,
2013-02-03 10:52:00,50.6,45.0,30.09,North,9,2.0,4.0,82,0.00,,,0.06,weatherlink.com 1.10,2013-02-03 18:52:00,
2013-02-03 11:07:00,50.9,46.0,30.09,NW,317,0.0,1.0,82,0.00,,,0.06,weatherlink.com 1.10,2013-02-03 19:07:00,
2013-02-03 11:22:00,51.7,46.0,30.08,NE,46,2.0,3.0,80,0.00,,,0.06,weatherlink.com 1.10,2013-02-03 19:22:00,
2013-02-03 11:37:00,51.6,45.0,30.08,NNW,330,1.0,3.0,77,0.00,,,0.06,weatherlink.com 1.10,2013-02-03 19:37:00,
2013-02-03 11:52:00,51.6,44.0,30.07,ENE,58,0.0,2.0,76,0.00,,,0.06,weatherlink.com 1.10,2013-02-03 19:52:00,
2013-02-03 12:07:00,51.8,44.0,30.06,NW,323,0.0,1.0,76,0.00,,,0.06,weatherlink.com 1.10,2013-02-03 20:07:00,
2013-02-03 12:22:00,52.2,44.0,30.05,NNE,25,0.0,0.0,74,0.00,,,0.06,weatherlink.com 1.10,2013-02-03 20:22:00,
2013-02-03 12:37:00,52.8,45.0,30.04,WNW,302,0.0,0.0,74,0.00,,,0.06,weatherlink.com 1.10,2013-02-03 20:37:00,
2013-02-03 12:52:00,54.2,45.0,30.04,South,190,4.0,4.0,70,0.00,,,0.06,weatherlink.com 1.10,2013-02-03 20:52:00,
2013-02-03 13:07:00,54.8,45.0,30.03,SE,132,1.0,4.0,70,0.00,,,0.06,weatherlink.com 1.10,2013-02-03 21:07:00,
2013-02-03 13:22:00,54.8,44.0,30.02,West,259,1.0,4.0,67,0.00,,,0.06,weatherlink.com 1.10,2013-02-03 21:22:00,
2013-02-03 13:37:00,55.4,44.0,30.01,SSW,200,2.0,5.0,66,0.00,,,0.06,weatherlink.com 1.10,2013-02-03 21:37:00,
2013-02-03 13:52:00,56.0,44.0,30.01,SSE,160,1.0,4.0,64,0.00,,,0.06,weatherlink.com 1.10,2013-02-03 21:52:00,
2013-02-03 14:07:00,55.8,44.0,30.02,SE,135,0.0,8.0,65,0.00,,,0.06,weatherlink.com 1.10,2013-02-03 22:07:00,
2013-02-03 14:22:00,55.5,43.0,30.02,SSW,198,0.0,5.0,64,0.00,,,0.06,weatherlink.com 1.10,2013-02-03 22:22:00,
2013-02-03 14:38:00,55.1,43.0,30.02,SW,222,2.0,6.0,63,0.00,,,0.06,weatherlink.com 1.10,2013-02-03 22:38:00,
2013-02-03 14:53:00,54.6,43.0,30.02,SSE,148,5.0,6.0,65,0.00,,,0.06,weatherlink.com 1.10,2013-02-03 22:53:00,
2013-02-03 15:08:00,54.5,44.0,30.02,South,173,0.0,7.0,67,0.00,,,0.06,weatherlink.com 1.10,2013-02-03 23:08:00,
2013-02-03 15:23:00,53.7,45.0,30.02,SSW,203,2.0,2.0,73,0.00,,,0.06,weatherlink.com 1.10,2013-02-03 23:23:00,
2013-02-03 15:38:00,52.0,45.0,30.02,SSE,161,0.0,0.0,76,0.00,,,0.06,weatherlink.com 1.10,2013-02-03 23:38:00,
2013-02-03 15:53:00,50.5,44.0,30.03,SSE,156,1.0,2.0,79,0.00,,,0.06,weatherlink.com 1.10,2013-02-03 23:53:00,
2013-02-03 16:08:00,49.9,44.0,30.03,SSW,200,0.0,0.0,80,0.00,,,0.06,weatherlink.com 1.10,2013-02-04 00:08:00,
2013-02-03 16:23:00,49.5,43.0,30.02,SSE,160,0.0,0.0,78,0.00,,,0.06,weatherlink.com 1.10,2013-02-04 00:23:00,
2013-02-03 16:38:00,48.8,43.0,30.03,ESE,108,0.0,0.0,80,0.00,,,0.06,weatherlink.com 1.10,2013-02-04 00:38:00,
2013-02-03 16:53:00,49.4,42.0,30.03,SSW,195,0.0,4.0,76,0.00,,,0.06,weatherlink.com 1.10,2013-02-04 00:53:00,
2013-02-03 17:08:00,48.1,42.0,30.04,SSE,164,1.0,2.0,78,0.00,,,0.06,weatherlink.com 1.10,2013-02-04 01:08:00,
2013-02-03 17:23:00,46.9,41.0,30.03,SSE,156,1.0,2.0,80,0.00,,,0.06,weatherlink.com 1.10,2013-02-04 01:23:00,
2013-02-03 17:38:00,46.3,40.0,30.04,SSE,150,1.0,3.0,78,0.00,,,0.06,weatherlink.com 1.10,2013-02-04 01:38:00,
2013-02-03 17:53:00,45.7,40.0,30.05,SSE,148,1.0,3.0,81,0.00,,,0.06,weatherlink.com 1.10,2013-02-04 01:53:00,
2013-02-03 18:08:00,45.2,40.0,30.05,SSE,156,2.0,2.0,82,0.00,,,0.06,weatherlink.com 1.10,2013-02-04 02:08:00,
2013-02-03 18:23:00,45.0,40.0,30.05,SE,146,2.0,4.0,81,0.00,,,0.06,weatherlink.com 1.10,2013-02-04 02:23:00,
2013-02-03 18:38:00,44.4,39.0,30.06,SSE,166,2.0,3.0,82,0.00,,,0.06,weatherlink.com 1.10,2013-02-04 02:38:00,
2013-02-03 18:53:00,44.1,39.0,30.07,South,169,2.0,3.0,83,0.00,,,0.06,weatherlink.com 1.10,2013-02-04 02:53:00,
2013-02-03 19:08:00,43.7,39.0,30.06,SE,139,2.0,2.0,84,0.00,,,0.06,weatherlink.com 1.10,2013-02-04 03:08:00,
2013-02-03 19:23:00,43.5,39.0,30.07,SSE,163,1.0,3.0,84,0.00,,,0.06,weatherlink.com 1.10,2013-02-04 03:23:00,
2013-02-03 19:38:00,43.1,39.0,30.08,SE,144,3.0,3.0,84,0.00,,,0.06,weatherlink.com 1.10,2013-02-04 03:38:00,
2013-02-03 19:53:00,42.8,38.0,30.08,ESE,122,2.0,2.0,84,0.00,,,0.06,weatherlink.com 1.10,2013-02-04 03:53:00,
2013-02-03 20:08:00,42.6,38.0,30.09,ESE,110,2.0,2.0,85,0.00,,,0.06,weatherlink.com 1.10,2013-02-04 04:08:00,
2013-02-03 20:23:00,42.6,38.0,30.09,SSE,151,2.0,3.0,84,0.00,,,0.06,weatherlink.com 1.10,2013-02-04 04:23:00,
2013-02-03 20:38:00,42.5,38.0,30.09,SSE,148,2.0,3.0,83,0.00,,,0.06,weatherlink.com 1.10,2013-02-04 04:38:00,
2013-02-03 20:53:00,42.5,38.0,30.09,SSE,155,1.0,3.0,84,0.00,,,0.06,weatherlink.com 1.10,2013-02-04 04:53:00,
2013-02-03 21:08:00,42.4,38.0,30.09,SE,145,2.0,3.0,84,0.00,,,0.06,weatherlink.com 1.10,2013-02-04 05:08:00,
2013-02-03 21:23:00,42.5,38.0,30.09,SSE,150,2.0,2.0,84,0.00,,,0.06,weatherlink.com 1.10,2013-02-04 05:23:00,
2013-02-03 21:38:00,42.4,38.0,30.09,SE,139,2.0,3.0,84,0.00,,,0.06,weatherlink.com 1.10,2013-02-04 05:38:00,
2013-02-03 21:53:00,42.5,38.0,30.09,SE,139,2.0,3.0,84,0.00,,,0.06,weatherlink.com 1.10,2013-02-04 05:53:00,
2013-02-03 22:08:00,42.7,38.0,30.09,SE,139,2.0,2.0,83,0.00,,,0.06,weatherlink.com 1.10,2013-02-04 06:08:00,
2013-02-03 22:23:00,42.6,38.0,30.10,SE,134,2.0,3.0,83,0.00,,,0.06,weatherlink.com 1.10,2013-02-04 06:23:00,
2013-02-03 22:38:00,42.5,38.0,30.10,SE,129,1.0,3.0,83,0.00,,,0.06,weatherlink.com 1.10,2013-02-04 06:38:00,
2013-02-03 22:53:00,42.5,38.0,30.10,SSE,158,2.0,3.0,83,0.00,,,0.06,weatherlink.com 1.10,2013-02-04 06:53:00,
2013-02-03 23:08:00,42.7,38.0,30.10,SE,134,1.0,4.0,82,0.00,,,0.06,weatherlink.com 1.10,2013-02-04 07:08:00,
2013-02-03 23:23:00,42.5,38.0,30.10,ESE,116,2.0,3.0,83,0.00,,,0.06,weatherlink.com 1.10,2013-02-04 07:23:00,
2013-02-03 23:38:00,42.2,37.0,30.10,SE,139,2.0,4.0,83,0.00,,,0.06,weatherlink.com 1.10,2013-02-04 07:38:00,
2013-02-03 23:53:00,42.0,38.0,30.11,SSE,155,1.0,2.0,84,0.00,,,0.06,weatherlink.com 1.10,2013-02-04 07:53:00,